Weather History for Medicine Lodge, KS

Change the Weather History Date:

Tuesday, December 4, 2012

  Actual Average Record
Temperature  
Mean Temperature 48 °F 37 °F  
Max Temperature 64 °F 49 °F 76 °F (1965)
Min Temperature 32 °F 25 °F 9 °F (1902)
Degree Days  
Heating Degree Days 17 28  
Month to date heating degree days 51 109  
Since 1 July heating degree days 787 967  
Cooling Degree Days 0 0  
Month to date cooling degree days 0 0  
Year to date cooling degree days 2258 1770  
Moisture  
Dew Point 23 °F    
Average Humidity 43    
Maximum Humidity 70    
Minimum Humidity 16    
Precipitation  
Precipitation 0.00 in 0.03 in 1.85 in (1944)
Month to date precipitation 0.00 0.11  
Year to date precipitation 17.92 26.33  
Snow  
Snow 0.00 in 0.00 in - ()
Month to date snowfall 0.3  
Since 1 July snowfall 0.0 0.5  
Snow Depth -    
Sea Level Pressure  
Sea Level Pressure 30.28 in    
Wind  
Wind Speed 5 mph (North)    
Max Wind Speed 10 mph    
Max Gust Speed 14 mph    
T = Trace of Precipitation, MM = Missing Value Source: NWS Daily Summary

Daily Weather History Graph

Daily Weather History Graph

Search for Another Location

Airport:

Trip Planner

Search our weather history database for the weather conditions in past years. The results will help you decide how hot, cold, wet, or windy it might be!

Date:

Astronomy

Dec. 04, 2012 Rise Set
Actual Time 7:32 AM CST 5:16 PM CST
Civil Twilight 7:03 AM CST 5:45 PM CST
Nautical Twilight 6:31 AM CST 6:17 PM CST
Astronomical Twilight 5:59 AM CST 6:49 PM CST
Moon 11:00 PM CST (12/4) 11:32 AM CST (12/4)
Length of Visible Light 10h 41m
Length of Day
9h 43m
Waning Gibbous, 69% of the Moon is Illuminated
Dec 4
Waning Gibbous
Dec 6
Last Quarter
Dec 13
New
Dec 19
First Quarter
Dec 28
Full

Hourly Weather History & Observations

Time (CST) Temp. Windchill Dew Point Humidity Pressure Visibility Wind Dir Wind Speed Gust Speed Precip Events Conditions
12:56 AM 46.0 °F 42.5 °F 32.0 °F 58% 30.13 in - NNW 6.9 mph - N/A   Unknown
1:56 AM 42.1 °F 37.7 °F 30.9 °F 65% 30.16 in - North 6.9 mph - N/A   Unknown
2:56 AM 39.0 °F 32.8 °F 30.0 °F 70% 30.17 in - North 9.2 mph - N/A   Unknown
3:56 AM 39.9 °F 34.5 °F 28.0 °F 63% 30.19 in - NNE 8.1 mph - N/A   Unknown
4:56 AM 37.9 °F 32.1 °F 26.1 °F 62% 30.22 in - North 8.1 mph - N/A   Unknown
5:56 AM 34.0 °F 27.2 °F 24.1 °F 67% 30.25 in - North 8.1 mph - N/A   Unknown
6:56 AM 33.1 °F 27.7 °F 24.1 °F 70% 30.29 in - North 5.8 mph - N/A   Unknown
7:56 AM 32.0 °F 26.4 °F 23.0 °F 69% 30.32 in - North 5.8 mph - N/A   Unknown
8:56 AM 37.0 °F 34.5 °F 24.1 °F 59% 30.32 in - WNW 3.5 mph - N/A   Unknown
9:56 AM 46.9 °F - 25.0 °F 42% 30.34 in - WNW 5.8 mph - N/A   Unknown
10:56 AM 55.0 °F - 24.1 °F 30% 30.34 in - NNW 4.6 mph - N/A   Unknown
11:56 AM 59.0 °F - 21.9 °F 24% 30.33 in - North 4.6 mph - N/A   Unknown
12:56 PM 60.1 °F - 21.0 °F 22% 30.32 in - North 3.5 mph - N/A   Unknown
1:56 PM 63.0 °F - 18.0 °F 18% 30.30 in - NNE 6.9 mph - N/A   Unknown
2:56 PM 64.0 °F - 18.0 °F 17% 30.29 in - Variable 3.5 mph - N/A   Unknown
3:56 PM 63.0 °F - 17.1 °F 17% 30.29 in - Variable 3.5 mph - N/A   Unknown
4:56 PM 59.0 °F - 18.0 °F 20% 30.30 in - Calm Calm - N/A   Unknown
5:56 PM 57.0 °F - 17.1 °F 21% 30.30 in - ESE 3.5 mph - N/A   Unknown
6:56 PM 46.0 °F - 19.9 °F 35% 30.32 in - Calm Calm - N/A   Unknown
7:56 PM 46.9 °F - 19.9 °F 34% 30.33 in - Calm Calm - N/A   Unknown
8:56 PM 37.9 °F 35.5 °F 21.9 °F 53% 30.33 in - NNE 3.5 mph - N/A   Unknown
9:56 PM 35.1 °F 32.2 °F 21.0 °F 57% 30.32 in - North 3.5 mph - N/A   Unknown
10:56 PM 33.1 °F 28.7 °F 21.0 °F 61% 30.33 in - North 4.6 mph - N/A   Unknown
11:56 PM 33.1 °F 28.7 °F 21.0 °F 61% 30.32 in - North 4.6 mph - N/A   Unknown